Regional Weather Roundup
Issued by NWS Midland/Odessa, TX

Skip options and go directly to product.
Home | Oldest Version | Previous Version | Current Version | All | Graphics & Text | Save Text | Print | Product List | Glossary On

Skip product version selection by date and time.   
406
ASUS44 KMAF 271910
RWRMAF
MIDLAND AREA WEATHER ROUNDUP
NATIONAL WEATHER SERVICE MIDLAND TX
200 PM CDT WED AUG 27 2014

...IN SOUTHWEST TEXAS AND SOUTHEAST NEW MEXICO...

CITY           SKY/WX    TMP DP  RH WIND       PRES   REMARKS
ALPINE         MOSUNNY   87  49  27 NE3       30.26F
ANDREWS        FAIR      90  55  30 SW8G17    30.13F
ARTESIA        NOT AVBL
BIG SPRING     MOSUNNY   94  56  27 CALM      30.11F
CARLSBAD       CLOUDY    80  62  54 W10       30.15F
DRYDEN           N/A     99  58  25 E8        30.05F
FORT STOCKTON  SUNNY     92  54  27 SW3       30.11F
GUAD PASS      PTSUNNY   79  60  52 W10       30.31S
HOBBS          MOSUNNY   90  54  29 S7        30.16F
MARFA          MOSUNNY   84  52  32 NE3       30.26F
MIDLAND AIRPK  SUNNY     94  55  26 CALM      30.11F
MIDLAND INTL   MOSUNNY   93  58  30 VRB3      30.10F
ODESSA         MOSUNNY   92  56  29 S12       30.12F
PECOS          SUNNY     94  56  28 N6        30.07F
PRESIDIO       FAIR      94  53  25 S5        30.08F
SEMINOLE       SUNNY     90  51  26 CALM      30.14F
SNYDER         MOSUNNY   92  61  35 NE7       30.09F
WINK           SUNNY     95  52  23 MISG      30.08F
$$
...OTHER STATIONS IN TEXAS...

CITY           SKY/WX    TMP DP  RH WIND       PRES   REMARKS
ABILENE        SUNNY     93  64  38 VRB3      30.06F
AMARILLO       PTSUNNY   85  64  49 S10       30.14F
AUSTIN         MOSUNNY   94  64  37 NE9       30.00F
BROWNSVILLE    MOSUNNY   96  74  48 NE16G22   29.92F HX 107
CORPUS CHRISTI PTSUNNY   91  71  51 E13       29.94F
DALLAS FTW     MOSUNNY   91  67  44 VRB5      30.03F
DEL RIO        SUNNY     95  67  39 VRB3      29.99F
EL PASO        MOSUNNY   83  61  47 CALM      30.18F
HOUSTON INT    PTSUNNY   91  68  46 NE14      29.98F
LUBBOCK        MOSUNNY   92  59  33 VRB3      30.12F
SAN ANGELO     MOSUNNY   93  65  39 VRB3      30.06F
SAN ANTONIO    PTSUNNY   91  66  43 NE8       30.01F
WACO           SUNNY     95  65  37 E14G20    30.02F
WICHITA FALLS  NOT AVBL
$$
...OTHER LOCATIONS IN NEW MEXICO...

CITY           SKY/WX    TMP DP  RH WIND       PRES   REMARKS
ALAMAGORDO     PTSUNNY   73  63  68 SE3       30.23F
ALBUQUERQUE    MOSUNNY   75  54  47 CALM      30.29F
CANNON AFB     MOSUNNY   83  59  43 VRB7      30.19F
CLOVIS           N/A     82  55  39 SW12      30.21F
HOLLOMAN AFB   PTSUNNY   78  65  63 VRB7      30.20F
ROSWELL        MOSUNNY   79  61  53 SE5       30.16F
RUIDOSO        LGT RAIN  61  55  82 N6        30.39R
SANTA FE       MOSUNNY   72  53  51 VRB5      30.32F
TRUTH OR CONSE MOSUNNY   78  58  49 VRB6      30.24F
TUCUMCARI      CLOUDY    84  57  39 S12       30.14F
$$

USA.gov is the U.S. government's official web portal to all federal, state and local government web resources and services.